Salida, CO

7:32 AM MDT on July 25, 2017 (GMT -0600)
Salida

Weather History for KANK - June, 2014

Change the Weather History Date:

Sunday, June 29, 2014

  Actual Average (KGUC) Record (KGUC)
Temperature  
Mean Temperature 70 °F -  
Max Temperature 88 °F 76 °F 87 °F (1998)
Min Temperature 51 °F 40 °F 37 °F (1999)
Cooling Degree Days 4    
Growing Degree Days 20 (Base 50)    
Moisture  
Dew Point 25 °F    
Average Humidity 20    
Maximum Humidity 36    
Minimum Humidity 9    
Precipitation  
Precipitation 0.00 in - - ()
Sea Level Pressure  
Sea Level Pressure 30.26 in    
Wind  
Wind Speed 11 mph (West)    
Max Wind Speed 28 mph    
Max Gust Speed 37 mph    
Visibility 10 miles    
Events      
Averages and records for this station are not official NWS values.
T = Trace of Precipitation, MM = Missing Value Source: NWS Daily Summary

Daily Weather History Graph

Daily Weather History Graph

Search for Another Location

Airport or City:

Trip Planner

Search our weather history database for the weather conditions in past years. The results will help you decide how hot, cold, wet, or windy it might be!

Date:

Astronomy

Jun. 29, 2014 Rise Set
Actual Time 5:42 AM MDT 8:32 PM MDT
Civil Twilight 5:11 AM MDT 9:04 PM MDT
Nautical Twilight 4:31 AM MDT 9:44 PM MDT
Astronomical Twilight 3:45 AM MDT 10:29 PM MDT
Moon 8:01 AM MDT (6/29) 9:56 PM MDT (6/29)
Length of Visible Light 15h 53m
Length of Day
14h 49m
Waxing Crescent, 5% of the Moon is Illuminated
Jun 29
Waxing Crescent
Jul 5
First Quarter
Jul 12
Full
Jul 18
Last Quarter
Jul 26
New

Hourly Weather History & Observations

Time (MDT) Temp. Dew Point Humidity Pressure Visibility Wind Dir Wind Speed Gust Speed Precip Events Conditions
12:15 AM - - N/A% 30.27 in 10.0 mi WSW 11.5 mph - N/A   Clear
12:55 AM - - N/A% 30.27 in 10.0 mi West 9.2 mph - N/A   Clear
1:15 AM - - N/A% 30.27 in 10.0 mi WSW 8.1 mph - N/A   Clear
1:35 AM - - N/A% 30.27 in 10.0 mi West 8.1 mph - N/A   Clear
1:55 AM - - N/A% 30.27 in 10.0 mi West 8.1 mph - N/A   Clear
2:15 AM - - N/A% 30.27 in 10.0 mi NW 5.8 mph - N/A   Clear
2:35 AM 58.1 °F 22.1 °F 25% 30.27 in 10.0 mi NNW 9.2 mph - N/A   Clear
2:55 AM 57.0 °F 22.8 °F 27% 30.27 in 10.0 mi WNW 5.8 mph - N/A   Clear
3:15 AM 55.6 °F 23.0 °F 28% 30.27 in 10.0 mi WNW 4.6 mph - N/A   Clear
3:35 AM 55.9 °F 23.0 °F 28% 30.27 in 10.0 mi NNW 9.2 mph - N/A   Clear
3:55 AM 54.7 °F 23.4 °F 30% 30.27 in 10.0 mi NW 8.1 mph - N/A   Clear
4:15 AM 54.3 °F 23.9 °F 31% 30.27 in 10.0 mi NNW 3.5 mph - N/A   Clear
4:35 AM 53.4 °F 24.3 °F 32% 30.27 in 10.0 mi NNW 9.2 mph - N/A   Clear
4:55 AM 53.2 °F 24.8 °F 33% 30.27 in 10.0 mi NNW 8.1 mph - N/A   Clear
5:15 AM 52.3 °F 25.5 °F 35% 30.27 in 10.0 mi Calm Calm - N/A   Clear
5:35 AM 52.0 °F 25.9 °F 36% 30.28 in 10.0 mi NW 8.1 mph - N/A   Clear
5:55 AM 51.8 °F 25.7 °F 36% 30.29 in 10.0 mi NNW 5.8 mph - N/A   Clear
6:15 AM 52.0 °F 25.7 °F 36% 30.29 in 10.0 mi West 5.8 mph - N/A   Clear
6:35 AM 52.7 °F 25.7 °F 35% 30.29 in 10.0 mi North 6.9 mph - N/A   Clear
6:55 AM 52.7 °F 26.4 °F 36% 30.30 in 10.0 mi Calm Calm - N/A   Clear
7:15 AM 54.3 °F 27.1 °F 35% 30.30 in 10.0 mi NNW 5.8 mph - N/A   Clear
7:35 AM 55.6 °F 27.1 °F 34% 30.31 in 10.0 mi NNW 3.5 mph - N/A   Clear
7:55 AM 56.7 °F 28.0 °F 33% 30.30 in 10.0 mi North 4.6 mph - N/A   Clear
8:15 AM 59.4 °F 26.8 °F 29% 30.30 in 10.0 mi North 3.5 mph - N/A   Clear
8:35 AM 62.4 °F 28.0 °F 27% 30.30 in 10.0 mi NNE 5.8 mph - N/A   Clear
8:55 AM 64.4 °F 28.8 °F 26% 30.30 in 10.0 mi NE 3.5 mph - N/A   Clear
9:15 AM 68.4 °F 28.2 °F 22% 30.29 in 10.0 mi ESE 4.6 mph - N/A   Clear
9:35 AM 76.8 °F 25.3 °F 15% 30.28 in 10.0 mi SSW 15.0 mph 20.7 mph N/A   Clear
9:55 AM 78.8 °F 24.6 °F 14% 30.27 in 10.0 mi South 17.3 mph 23.0 mph N/A   Clear
10:15 AM 79.7 °F 25.7 °F 14% 30.27 in 10.0 mi SW 10.4 mph 23.0 mph N/A   Clear
10:35 AM 82.4 °F 25.7 °F 13% 30.27 in 10.0 mi SW 19.6 mph 28.8 mph N/A   Clear
10:55 AM 82.6 °F 25.2 °F 12% 30.28 in 10.0 mi WSW 20.7 mph 29.9 mph N/A   Clear
11:15 AM 82.6 °F 24.6 °F 12% 30.28 in 10.0 mi West 17.3 mph 29.9 mph N/A   Clear
11:35 AM - - N/A% 30.29 in 10.0 mi WSW 19.6 mph 28.8 mph N/A   Clear
11:55 AM 84.0 °F 24.1 °F 11% 30.29 in 10.0 mi West 17.3 mph 28.8 mph N/A   Clear
12:15 PM 84.9 °F 24.6 °F 11% 30.29 in 10.0 mi WSW 18.4 mph 27.6 mph N/A   Clear
12:35 PM 84.6 °F 23.0 °F 10% 30.28 in 10.0 mi West 23.0 mph 33.4 mph N/A   Clear
12:55 PM 85.3 °F 23.2 °F 10% 30.28 in 10.0 mi West 27.6 mph 35.7 mph N/A   Clear
1:15 PM 85.6 °F 22.8 °F 10% 30.27 in 10.0 mi WSW 25.3 mph 36.8 mph N/A   Clear
1:35 PM 86.0 °F 22.6 °F 10% 30.27 in 10.0 mi WSW 21.9 mph 32.2 mph N/A   Clear
1:55 PM 86.0 °F 23.0 °F 10% 30.25 in 10.0 mi West 11.5 mph 33.4 mph N/A   Clear
2:15 PM 87.4 °F 23.4 °F 10% 30.25 in 10.0 mi West 19.6 mph 36.8 mph N/A   Clear
2:35 PM 87.4 °F 23.2 °F 10% 30.24 in 10.0 mi WSW 18.4 mph 35.7 mph N/A   Clear
2:55 PM 87.8 °F 21.2 °F 9% 30.24 in 10.0 mi West 17.3 mph 34.5 mph N/A   Clear
3:15 PM 88.2 °F 22.1 °F 9% 30.24 in 10.0 mi West 23.0 mph 33.4 mph N/A   Clear
3:35 PM 88.2 °F 22.1 °F 9% 30.24 in 10.0 mi WNW 21.9 mph 29.9 mph N/A   Clear
3:55 PM 87.6 °F 21.0 °F 9% 30.24 in 10.0 mi West 21.9 mph 33.4 mph N/A   Clear
4:15 PM - - N/A% 30.23 in 10.0 mi West 23.0 mph 29.9 mph N/A   Clear
4:35 PM 87.6 °F 22.6 °F 9% 30.22 in 10.0 mi West 16.1 mph 33.4 mph N/A   Clear
4:55 PM - - N/A% 30.22 in 10.0 mi West 15.0 mph 26.5 mph N/A   Clear
5:15 PM 88.3 °F 23.2 °F 9% 30.22 in 10.0 mi WSW 11.5 mph 23.0 mph N/A   Clear
5:35 PM - - N/A% 30.21 in 10.0 mi West 19.6 mph 25.3 mph N/A   Clear
5:55 PM - - N/A% 30.21 in 10.0 mi WSW 11.5 mph 28.8 mph N/A   Clear
6:15 PM 86.9 °F 23.4 °F 10% 30.21 in 10.0 mi WSW 16.1 mph 25.3 mph N/A   Clear
6:35 PM - - N/A% 30.21 in 10.0 mi West 20.7 mph 26.5 mph N/A   Clear
6:55 PM 85.3 °F 23.5 °F 10% 30.21 in 10.0 mi West 18.4 mph 23.0 mph N/A   Clear
7:15 PM 84.6 °F 23.2 °F 11% 30.21 in 10.0 mi West 12.7 mph 27.6 mph N/A   Clear
7:35 PM 83.7 °F 23.7 °F 11% 30.21 in 10.0 mi West 13.8 mph - N/A   Clear
7:55 PM 82.4 °F 25.0 °F 12% 30.22 in 10.0 mi West 10.4 mph - N/A   Clear
8:15 PM 80.4 °F 23.9 °F 12% 30.22 in 10.0 mi WNW 9.2 mph 16.1 mph N/A   Clear
8:35 PM 78.1 °F 23.9 °F 13% 30.22 in 10.0 mi West 8.1 mph - N/A   Clear
8:55 PM 75.4 °F 25.5 °F 16% 30.23 in 10.0 mi West 6.9 mph - N/A   Clear
9:15 PM 75.4 °F 24.6 °F 15% 30.24 in 10.0 mi West 8.1 mph - N/A   Clear
9:35 PM 73.4 °F 26.2 °F 17% 30.24 in 10.0 mi West 6.9 mph - N/A   Clear
9:55 PM 69.4 °F 27.7 °F 21% 30.25 in 10.0 mi WSW 8.1 mph - N/A   Clear
10:15 PM 70.7 °F 27.1 °F 20% 30.25 in 10.0 mi NW 3.5 mph - N/A   Clear
10:35 PM 68.5 °F 27.1 °F 21% 30.25 in 10.0 mi WSW 9.2 mph - N/A   Clear
10:55 PM 69.4 °F 27.5 °F 21% 30.25 in 10.0 mi NNW 9.2 mph - N/A   Clear
11:15 PM 66.9 °F 28.4 °F 24% 30.25 in 10.0 mi West 4.6 mph - N/A   Clear
11:35 PM 66.7 °F 28.0 °F 23% 30.25 in 10.0 mi WNW 5.8 mph - N/A   Clear
11:55 PM 65.1 °F 28.0 °F 25% 30.25 in 10.0 mi WSW 9.2 mph - N/A   Clear